GM4SUF Weather Reports


Display with metric or nautical units.
time (UTC)temp
F
wind
direction
speed
MPH
gust
MPH
rain 1hr
in
rain 24hr
in
rain mn
in
humidity
%
barometer
mb
20260508173905 53 306 13.0 19.0 0.00 0.00 0.00 100 1017.1
20260508173406 53 318 12.0 19.0 0.00 0.00 0.00 100 1017.0
20260508172912 53 281 13.0 23.0 0.00 0.00 0.00 100 1016.9
20260508172410 54 295 14.0 23.0 0.00 0.00 0.00 100 1016.8
20260508171858 54 303 13.0 20.0 0.00 0.00 0.00 100 1016.7
20260508171645 54 306 13.0 23.0 0.00 0.00 0.00 100 1016.6
20260508170904 54 274 13.0 23.0 0.00 0.00 0.00 100 1016.5
20260508170359 54 294 14.0 22.0 0.00 0.00 0.00 100 1016.5
20260508165857 54 306 15.0 23.0 0.00 0.00 0.00 100 1016.5
20260508165418 53 240 13.0 21.0 0.00 0.00 0.00 100 1016.2
20260508165400 54 282 14.0 23.0 0.00 0.00 0.00 100 1016.3
20260508164358 52 289 12.0 20.0 0.00 0.00 0.00 100 1016.2
20260508163859 53 283 11.0 20.0 0.00 0.00 0.00 100 1016.1
20260508163405 53 325 13.0 23.0 0.00 0.00 0.00 100 1016.2
20260508162857 53 272 16.0 28.0 0.00 0.00 0.00 100 1016.0
20260508162400 53 269 15.0 28.0 0.00 0.00 0.00 100 1015.9
20260508161859 53 279 11.0 24.0 0.00 0.00 0.00 100 1015.9
20260508161358 53 337 11.0 22.0 0.00 0.00 0.00 100 1015.9
20260508160856 53 297 14.0 22.0 0.00 0.00 0.00 100 1015.8
20260508160406 53 271 12.0 20.0 0.00 0.00 0.00 100 1015.9
20260508160357 53 294 14.0 21.0 0.00 0.00 0.00 100 1015.8
20260508155629 53 287 13.0 22.0 0.00 0.00 0.00 100 1015.9
20260508154854 53 315 13.0 22.0 0.00 0.00 0.00 100 1015.8
20260508154353 53 271 13.0 22.0 0.00 0.00 0.00 100 1015.8
20260508153853 53 284 13.0 22.0 0.00 0.00 0.00 100 1015.7
20260508153353 53 292 12.0 22.0 0.00 0.00 0.00 100 1015.6
20260508152855 53 310 12.0 24.0 0.00 0.00 0.00 100 1015.6
20260508152626 54 342 13.0 24.0 0.00 0.00 0.00 100 1015.5
20260508152121 55 309 12.0 20.0 0.00 0.00 0.00 100 1015.4
20260508151416 55 295 10.0 19.0 0.00 0.00 0.00 100 1015.2
20260508151403 55 298 11.0 20.0 0.00 0.00 0.00 100 1015.3
20260508150350 54 347 11.0 23.0 0.00 0.00 0.00 100 1015.1
20260508145849 54 306 11.0 23.0 0.00 0.00 0.00 100 1015.0
20260508145349 55 298 9.0 19.0 0.00 0.00 0.00 100 1015.0
20260508144850 55 303 10.0 21.0 0.00 0.00 0.00 100 1015.0
20260508144620 55 323 10.0 21.0 0.00 0.00 0.00 100 1014.9
20260508143849 54 311 11.0 21.0 0.00 0.00 0.00 100 1014.9
20260508143349 54 291 11.0 21.0 0.00 0.00 0.00 100 1014.8
20260508142848 55 287 10.0 20.0 0.00 0.00 0.00 100 1014.8
20260508142351 55 327 10.0 19.0 0.00 0.00 0.00 100 1014.8
20260508141848 54 308 11.0 23.0 0.00 0.00 0.00 100 1014.7
20260508141349 54 281 12.0 23.0 0.00 0.00 0.00 100 1014.8
20260508140846 54 303 12.0 22.0 0.00 0.00 0.00 100 1014.8
20260508140346 55 343 11.0 22.0 0.00 0.00 0.00 100 1014.7
20260508135844 54 331 11.0 26.0 0.00 0.00 0.00 100 1014.7
20260508135345 53 297 11.0 26.0 0.00 0.00 0.00 100 1014.5
20260508134844 54 303 11.0 19.0 0.00 0.00 0.00 100 1014.4
20260508134346 53 311 10.0 19.0 0.00 0.00 0.00 100 1014.4
20260508133845 52 304 12.0 22.0 0.00 0.00 0.00 100 1014.3
20260508133348 52 262 14.0 22.0 0.00 0.00 0.00 100 1014.2
20260508132840 53 299 15.0 22.0 0.00 0.00 0.00 100 1014.2
20260508132339 53 290 13.0 23.0 0.00 0.00 0.00 100 1014.1
20260508131836 53 319 12.0 24.0 0.00 0.00 0.00 100 1014.0
20260508131335 53 287 13.0 24.0 0.00 0.00 0.00 100 1014.0
20260508130835 54 336 11.0 19.0 0.00 0.00 0.00 100 1013.9
20260508130348 55 314 11.0 20.0 0.00 0.00 0.00 100 1013.7
20260508130338 54 311 11.0 20.0 0.00 0.00 0.00 100 1013.8
20260508125334 56 263 13.0 21.0 0.00 0.00 0.00 100 1013.4
20260508124833 56 300 14.0 21.0 0.00 0.00 0.00 100 1013.4
20260508124331 55 314 12.0 20.0 0.00 0.00 0.00 100 1013.3
20260508123832 54 309 11.0 19.0 0.00 0.00 0.00 100 1013.2
20260508123333 54 325 11.0 21.0 0.00 0.00 0.00 100 1013.2
20260508122832 54 284 11.0 21.0 0.00 0.00 0.00 100 1013.1
20260508122334 55 296 10.0 18.0 0.00 0.00 0.00 100 1013.1
20260508121834 55 293 11.0 18.0 0.00 0.00 0.00 100 1013.0
20260508121333 55 284 13.0 20.0 0.00 0.00 0.00 100 1013.0
20260508120833 55 309 13.0 20.0 0.00 0.00 0.00 100 1012.9
20260508120604 54 297 13.0 20.0 0.00 0.00 0.00 100 1012.9
20260508115830 54 295 11.0 20.0 0.00 0.00 0.00 100 1012.9
20260508115328 54 323 11.0 19.0 0.00 0.00 0.00 100 1012.8
20260508114828 55 307 12.0 21.0 0.00 0.00 0.00 100 1012.7
20260508114328 56 300 12.0 22.0 0.00 0.00 0.00 100 1012.6
20260508113830 56 261 12.0 22.0 0.00 0.00 0.00 100 1012.2
20260508113328 56 299 13.0 24.0 0.00 0.00 0.00 100 1012.2
20260508112827 56 268 15.0 25.0 0.00 0.00 0.00 100 1012.2
20260508112329 56 254 16.0 25.0 0.00 0.00 0.00 100 1012.2
20260508111828 55 244 13.0 25.0 0.00 0.00 0.00 100 1012.0
20260508111327 55 236 14.0 25.0 0.00 0.00 0.00 100 1012.0
20260508110829 55 217 15.0 22.0 0.00 0.00 0.00 100 1012.0
20260508110607 55 241 13.0 21.0 0.00 0.00 0.00 100 1012.1
20260508105824 55 286 12.0 24.0 0.00 0.00 0.00 100 1012.1
20260508105319 55 258 13.0 24.0 0.00 0.00 0.00 100 1011.9
20260508104814 55 261 14.0 24.0 0.00 0.00 0.00 100 1011.9
20260508104310 54 226 16.0 24.0 0.00 0.00 0.00 100 1011.8
20260508104037 54 264 16.0 24.0 0.00 0.00 0.00 100 1011.8
20260508103306 54 234 15.0 23.0 0.00 0.00 0.00 100 1011.7
20260508102827 54 273 13.0 24.0 0.00 0.00 0.00 100 1011.6
20260508102815 54 252 15.0 24.0 0.00 0.00 0.00 100 1011.7
20260508102035 54 259 12.0 22.0 0.00 0.00 0.00 100 1011.5
20260508101305 54 259 9.0 18.0 0.00 0.00 0.00 100 1011.5
20260508100804 54 267 8.0 17.0 0.00 0.00 0.00 100 1011.4
20260508100305 54 275 10.0 20.0 0.00 0.00 0.00 100 1011.4
20260508100026 53 252 11.0 20.0 0.00 0.00 0.00 100 1011.3
20260508095306 53 250 12.0 20.0 0.00 0.00 0.00 100 1011.3
20260508095038 53 263 13.0 20.0 0.00 0.00 0.00 100 1011.2
20260508094305 52 246 12.0 21.0 0.00 0.00 0.00 100 1011.2
20260508093804 52 244 13.0 21.0 0.00 0.00 0.00 100 1011.2
20260508093543 52 256 13.0 22.0 0.00 0.00 0.00 100 1011.2
20260508092804 52 256 14.0 22.0 0.00 0.00 0.00 100 1011.2
20260508092300 53 263 14.0 25.0 0.00 0.00 0.00 100 1011.1
20260508091757 53 265 14.0 27.0 0.00 0.00 0.00 100 1011.0
20260508091257 53 252 14.0 27.0 0.00 0.00 0.00 100 1010.9
20260508090759 53 228 14.0 28.0 0.00 0.00 0.00 100 1010.9
20260508090255 53 247 12.0 28.0 0.00 0.00 0.00 100 1010.8
20260508085755 53 291 11.0 20.0 0.00 0.00 0.00 100 1010.8
20260508085255 52 240 12.0 22.0 0.00 0.00 0.00 100 1010.7
20260508084755 52 249 13.0 22.0 0.00 0.00 0.00 100 1010.6
20260508084256 51 237 14.0 23.0 0.00 0.00 0.00 100 1010.4
20260508083756 51 240 14.0 23.0 0.00 0.00 0.00 100 1010.4
20260508083255 51 227 14.0 23.0 0.00 0.00 0.00 100 1010.5
20260508082755 51 234 14.0 25.0 0.00 0.00 0.00 100 1010.4
20260508082255 51 257 14.0 25.0 0.00 0.00 0.00 100 1010.5
20260508081757 51 237 15.0 24.0 0.00 0.00 0.00 100 1010.3
20260508081541 51 247 16.0 24.0 0.00 0.00 0.00 100 1010.2
20260508080814 50 269 17.0 25.0 0.00 0.00 0.00 100 1010.2
20260508080804 50 238 15.0 22.0 0.00 0.00 0.00 100 1010.2
20260508075756 50 235 16.0 25.0 0.00 0.00 0.00 100 1010.2
20260508075257 50 249 13.0 24.0 0.00 0.00 0.00 100 1010.2
20260508074750 51 273 10.0 24.0 0.00 0.00 0.00 100 1010.4
20260508074529 51 233 8.0 14.0 0.00 0.00 0.00 100 1010.5
20260508073756 51 272 6.0 14.0 0.00 0.00 0.00 100 1010.5
20260508073303 51 259 3.0 7.0 0.00 0.00 0.00 100 1010.3
20260508073253 51 274 4.0 12.0 0.00 0.00 0.00 100 1010.4
20260508072249 50 271 3.0 6.0 0.00 0.00 0.00 100 1010.3
20260508071748 50 275 2.0 8.0 0.00 0.00 0.00 100 1010.3
20260508071249 50 299 4.0 12.0 0.00 0.00 0.00 100 1010.1
20260508070747 50 230 4.0 12.0 0.00 0.00 0.00 100 1010.1
20260508070248 49 292 2.0 6.0 0.00 0.00 0.00 100 1009.9
20260508065742 49 94 2.0 4.0 0.00 0.00 0.00 100 1009.8
20260508065242 49 94 2.0 4.0 0.00 0.00 0.00 100 1009.8
20260508065008 49 99 3.0 6.0 0.00 0.00 0.00 100 1009.6
20260508064545 48 99 3.0 8.0 0.00 0.00 0.00 100 1009.6
20260508063735 48 133 4.0 8.0 0.00 0.00 0.00 100 1009.5
20260508063233 48 145 4.0 13.0 0.00 0.00 0.00 100 1009.4
20260508062731 48 227 6.0 13.0 0.00 0.00 0.00 100 1009.4
20260508062243 48 249 5.0 13.0 0.00 0.00 0.00 100 1009.2
20260508062232 48 227 7.0 13.0 0.00 0.00 0.00 100 1009.3
20260508061232 47 265 4.0 10.0 0.00 0.00 0.00 100 1009.3
20260508060735 47 259 5.0 11.0 0.00 0.00 0.00 100 1009.2
20260508060253 46 255 6.0 11.0 0.00 0.00 0.00 100 1009.2
20260508060241 47 265 7.0 11.0 0.00 0.00 0.00 100 1009.1
20260508055514 46 252 4.0 10.0 0.00 0.00 0.00 100 1009.1
20260508055056 45 237 4.0 8.0 0.00 0.00 0.00 100 1008.9
20260508054736 45 226 4.0 7.0 0.00 0.00 0.00 100 1009.0
20260508053956 45 259 4.0 8.0 0.00 0.00 0.00 100 1008.9
20260508053227 45 257 5.0 10.0 0.00 0.00 0.00 100 1008.9
20260508052726 44 249 5.0 10.0 0.00 0.00 0.00 100 1008.8
20260508052226 44 230 3.0 8.0 0.00 0.00 0.00 100 1008.8
20260508051727 43 237 3.0 7.0 0.00 0.00 0.00 100 1008.8
20260508051227 43 199 3.0 7.0 0.00 0.00 0.00 100 1008.8
20260508050726 42 294 2.0 6.0 0.00 0.00 0.00 100 1008.7
20260508050230 42 254 3.0 5.0 0.00 0.00 0.00 100 1008.7
20260508045727 42 254 4.0 7.0 0.00 0.00 0.00 100 1008.7
20260508045229 42 256 4.0 7.0 0.00 0.00 0.00 100 1008.6
20260508044727 42 256 5.0 9.0 0.00 0.00 0.00 100 1008.7
20260508044222 41 274 5.0 10.0 0.00 0.00 0.00 100 1008.5
20260508043722 40 290 4.0 10.0 0.00 0.00 0.00 100 1008.4
20260508043220 40 259 2.0 4.0 0.00 0.00 0.00 100 1008.4
20260508042721 40 259 2.0 4.0 0.00 0.00 0.00 100 1008.4
20260508042220 40 257 1.0 4.0 0.00 0.00 0.00 100 1008.3
20260508041945 40 256 1.0 2.0 0.00 0.00 0.00 100 1008.4
20260508041212 40 257 1.0 3.0 0.00 0.00 0.00 100 1008.4
20260508040708 40 257 2.0 6.0 0.00 0.00 0.00 100 1008.3
20260508040208 41 257 3.0 6.0 0.00 0.00 0.00 100 1008.3
20260508035940 41 257 3.0 6.0 0.00 0.00 0.00 100 1008.4
20260508035205 41 257 3.0 6.0 0.00 0.00 0.00 100 1008.3
20260508034706 42 265 3.0 4.0 0.00 0.00 0.00 100 1008.3
20260508034442 42 292 3.0 7.0 0.00 0.00 0.00 100 1008.4
20260508033704 42 292 4.0 7.0 0.00 0.00 0.00 100 1008.3
20260508033202 42 290 3.0 7.0 0.00 0.00 0.00 100 1008.2
20260508032704 42 263 4.0 7.0 0.00 0.00 0.00 100 1008.1
20260508032202 42 249 4.0 7.0 0.00 0.00 0.00 100 1008.1
20260508031706 43 270 3.0 4.0 0.00 0.00 0.00 100 1008.1
20260508031448 43 257 2.0 4.0 0.00 0.00 0.00 100 1008.1
20260508030704 43 252 1.0 3.0 0.00 0.00 0.00 100 1008.1
20260508030203 43 252 2.0 4.0 0.00 0.00 0.00 100 1008.1
20260508025700 43 252 3.0 7.0 0.00 0.00 0.00 100 1008.1
20260508025154 44 252 4.0 7.0 0.00 0.00 0.00 100 1008.1
20260508024656 44 239 5.0 8.0 0.00 0.00 0.00 100 1008.1
20260508024156 44 232 5.0 8.0 0.00 0.00 0.00 100 1008.2
20260508023654 44 242 4.0 7.0 0.00 0.00 0.00 100 1008.1
20260508023154 44 252 4.0 5.0 0.00 0.00 0.00 100 1008.1
20260508022654 44 256 4.0 7.0 0.00 0.00 0.00 100 1008.1
20260508022215 45 264 3.0 7.0 0.00 0.00 0.00 100 1008.1
20260508022204 44 257 3.0 7.0 0.00 0.00 0.00 100 1008.1
20260508021436 45 264 2.0 7.0 0.00 0.00 0.00 100 1008.0
20260508020921 46 273 2.0 3.0 0.00 0.00 0.00 100 1008.0
20260508020157 46 272 2.0 3.0 0.00 0.00 0.00 100 1008.0
20260508015656 47 273 2.0 3.0 0.00 0.00 0.00 100 1007.9
20260508015432 47 273 1.0 3.0 0.00 0.00 0.00 100 1007.9
20260508014654 48 273 0.0 2.0 0.00 0.00 0.00 100 1007.7
20260508014154 48 273 1.0 4.0 0.00 0.00 0.00 100 1007.8
20260508013656 48 273 1.0 4.0 0.00 0.00 0.00 100 1007.8
20260508013154 49 272 0.0 3.0 0.00 0.00 0.00 100 1007.7
20260508012706 49 273 2.0 6.0 0.00 0.00 0.00 100 1007.6
20260508012655 49 273 1.0 6.0 0.00 0.00 0.00 100 1007.7
20260508011648 49 259 2.0 6.0 0.00 0.00 0.00 100 1007.7
20260508011149 50 258 3.0 7.0 0.00 0.00 0.00 100 1007.7
20260508010649 50 257 4.0 7.0 0.00 0.00 0.00 100 1007.7
20260508010423 50 223 5.0 8.0 0.00 0.00 0.00 100 1007.7
20260508005651 50 247 4.0 8.0 0.00 0.00 0.00 100 1007.7
20260508005149 50 246 4.0 8.0 0.00 0.00 0.00 100 1007.7
20260508004649 50 241 4.0 9.0 0.00 0.00 0.00 100 1007.7
20260508004424 50 245 3.0 9.0 0.00 0.00 0.00 100 1007.7
20260508003917 50 229 3.0 7.0 0.00 0.00 0.00 100 1007.7
20260508003144 50 240 2.0 5.0 0.00 0.00 0.00 100 1007.7
20260508002644 50 240 4.0 8.0 0.00 0.00 0.00 100 1007.8
20260508002149 50 240 4.0 8.0 0.00 0.00 0.00 100 1007.7
20260508001643 50 207 4.0 6.0 0.00 0.00 0.00 100 1007.7
20260508001132 50 176 4.0 7.0 0.00 0.00 0.00 100 1007.7
20260508000633 50 192 4.0 8.0 0.00 0.00 0.00 100 1007.7
20260508000137 50 191 5.0 9.0 0.00 0.00 0.00 100 1007.7
20260507235638 50 237 6.0 11.0 0.00 0.00 0.00 100 1007.6
20260507235413 50 228 6.0 11.0 0.00 0.00 0.00 100 1007.6
20260507234632 50 226 6.0 11.0 0.00 0.00 0.00 100 1007.6
20260507234137 50 227 5.0 11.0 0.00 0.00 0.00 100 1007.6
20260507233630 51 226 5.0 11.0 0.00 0.00 0.00 100 1007.7
20260507233403 51 237 7.0 15.0 0.00 0.00 0.00 100 1007.5
20260507232631 51 241 7.0 15.0 0.00 0.00 0.00 100 1007.4
20260507232130 51 187 7.0 13.0 0.00 0.00 0.00 100 1007.4
20260507231631 51 216 8.0 13.0 0.00 0.00 0.00 100 1007.4
20260507231409 51 207 8.0 13.0 0.00 0.00 0.00 100 1007.4
20260507230632 51 250 8.0 14.0 0.00 0.00 0.00 100 1007.4
20260507230130 51 226 8.0 14.0 0.00 0.00 0.00 100 1007.3
20260507225629 51 230 8.0 14.0 0.00 0.00 0.00 100 1007.3
20260507225128 51 217 8.0 14.0 0.00 0.00 0.00 100 1007.3
20260507224629 51 230 8.0 18.0 0.00 0.00 0.00 100 1007.3
20260507224129 51 211 9.0 18.0 0.00 0.00 0.00 100 1007.2
20260507223858 51 215 9.0 17.0 0.00 0.00 0.00 100 1007.3
20260507223127 51 242 9.0 15.0 0.00 0.00 0.00 100 1007.3
20260507222627 51 222 8.0 15.0 0.00 0.00 0.00 100 1007.2
20260507222127 51 188 8.0 12.0 0.00 0.00 0.00 100 1007.2
20260507221625 51 196 8.0 15.0 0.00 0.00 0.00 100 1007.2
20260507221126 51 226 7.0 15.0 0.00 0.00 0.00 100 1007.2
20260507220625 51 202 6.0 10.0 0.00 0.00 0.00 100 1007.3
20260507220126 51 219 8.0 13.0 0.00 0.00 0.00 100 1007.3
20260507215625 51 215 8.0 14.0 0.00 0.00 0.00 100 1007.3
20260507215403 51 216 7.0 14.0 0.00 0.00 0.00 100 1007.4
20260507214625 51 221 6.0 11.0 0.00 0.00 0.00 100 1007.4
20260507214125 51 203 5.0 10.0 0.00 0.00 0.00 100 1007.4
20260507213625 51 199 5.0 11.0 0.00 0.00 0.00 100 1007.4
20260507213126 51 209 6.0 14.0 0.00 0.00 0.00 100 1007.4
20260507212628 52 195 7.0 14.0 0.00 0.00 0.00 100 1007.3
20260507212127 52 219 7.0 15.0 0.00 0.00 0.00 100 1007.3
20260507211850 52 208 6.0 15.0 0.00 0.00 0.00 100 1007.4
20260507211126 52 202 6.0 12.0 0.00 0.00 0.00 100 1007.3
20260507210619 52 193 6.0 12.0 0.00 0.00 0.00 100 1007.2
20260507210120 52 227 6.0 11.0 0.00 0.00 0.00 100 1007.0
20260507205849 52 214 7.0 15.0 0.00 0.00 0.00 100 1007.1
20260507205119 52 248 7.0 15.0 0.00 0.00 0.00 100 1007.1
20260507204619 52 229 8.0 15.0 0.00 0.00 0.00 100 1007.0
20260507204126 52 194 8.0 18.0 0.00 0.00 0.00 100 1007.0
20260507203621 53 207 9.0 18.0 0.00 0.00 0.00 100 1007.0
20260507203152 53 213 7.0 17.0 0.00 0.00 0.00 100 1006.9
20260507203130 53 227 8.0 17.0 0.00 0.00 0.00 100 1007.0
20260507202853 53 192 6.0 13.0 0.00 0.00 0.00 100 1006.8
20260507201608 53 194 7.0 13.0 0.00 0.00 0.00 100 1006.6
20260507201105 53 217 6.0 12.0 0.00 0.00 0.00 100 1006.6
20260507200607 53 218 6.0 13.0 0.00 0.00 0.00 100 1006.5
20260507200117 53 203 7.0 18.0 0.00 0.00 0.00 100 1006.5
20260507195601 53 167 7.0 18.0 0.00 0.00 0.00 100 1006.5
20260507195059 53 200 6.0 14.0 0.00 0.00 0.00 100 1006.5
20260507194558 54 178 7.0 13.0 0.00 0.00 0.00 100 1006.5
20260507194327 54 186 9.0 19.0 0.00 0.00 0.00 100 1006.5
20260507193557 54 216 9.0 19.0 0.00 0.00 0.00 100 1006.5
20260507193057 54 203 9.0 14.0 0.00 0.00 0.00 100 1006.4
20260507192557 55 210 10.0 24.0 0.00 0.00 0.00 100 1006.4
20260507192056 55 228 11.0 24.0 0.00 0.00 0.00 100 1006.3
20260507191559 55 253 11.0 15.0 0.00 0.00 0.00 100 1006.3
20260507191327 56 233 10.0 18.0 0.00 0.00 0.00 100 1006.3
20260507190554 56 219 9.0 18.0 0.00 0.00 0.00 100 1006.4
20260507190054 55 232 8.0 15.0 0.00 0.00 0.00 100 1006.3
20260507185550 55 217 8.0 17.0 0.00 0.00 0.00 100 1006.4
20260507185042 56 213 9.0 17.0 0.00 0.00 0.00 100 1006.3
20260507184537 55 203 9.0 17.0 0.00 0.00 0.00 100 1006.2
20260507184032 55 245 8.0 17.0 0.00 0.00 0.00 100 1006.2
20260507183533 56 221 9.0 17.0 0.00 0.00 0.00 100 1006.2
20260507183035 56 211 11.0 18.0 0.00 0.00 0.00 100 1006.1
20260507182534 56 236 9.0 18.0 0.00 0.00 0.00 100 1006.2
20260507182034 56 222 7.0 18.0 0.00 0.00 0.00 100 1006.3
20260507181534 56 223 9.0 17.0 0.00 0.00 0.00 100 1006.2
20260507181033 56 209 10.0 17.0 0.00 0.00 0.00 100 1006.3
20260507180534 56 229 10.0 18.0 0.00 0.00 0.00 100 1006.2
20260507180032 56 230 12.0 22.0 0.00 0.00 0.00 100 1006.2
20260507175531 57 220 13.0 22.0 0.00 0.00 0.00 100 1006.2
20260507175032 57 252 12.0 22.0 0.00 0.00 0.00 100 1006.2
20260507174534 57 226 11.0 25.0 0.00 0.00 0.00 100 1006.2